Wind_Speed
36 35 35 36 37 36 37 37 37 37 36 35 35 36 36 36 36 35 34 34 33 33 34 35 36 36 37 38 39 40 40 39 38 36 35 34 33 31 30 30 30 29
38 38 37 38 38 37 37 37 38 39 39 39 39 38 37 37 37 36 35 35 34 34 35 36 37 37 36 37 38 39 40 40 40 39 37 36 35 34 34 34 34 32
41 40 38 38 39 39 39 39 39 40 41 42 43 42 40 40 39 39 39 38 37 37 37 37 37 37 37 37 37 38 40 40 41 41 40 39 38 38 37 36 35 34
44 43 41 40 40 41 41 42 42 43 43 45 46 46 45 44 43 43 42 41 41 40 40 40 39 39 39 39 39 39 40 41 42 43 43 42 42 41 39 38 36 35
47 46 46 45 44 44 44 44 45 46 47 49 49 49 49 49 49 48 47 46 45 44 43 42 42 41 41 41 41 41 41 42 42 43 43 43 43 42 41 39 38 37
49 49 48 48 48 48 48 49 50 51 52 53 53 52 51 52 53 53 52 51 49 48 47 46 45 45 45 45 45 44 44 44 43 44 44 44 44 44 42 41 40 40
51 51 50 50 51 51 51 51 52 54 54 54 54 54 54 54 54 54 53 52 51 49 49 48 48 48 48 48 48 48 47 47 46 46 46 46 46 46 45 44 43 42
51 52 52 52 52 52 52 52 53 54 54 55 55 56 56 55 54 53 53 52 51 50 50 50 50 50 50 50 50 50 50 50 50 49 49 49 48 48 47 46 45 44
53 53 54 54 54 53 53 53 53 54 54 55 56 58 59 59 58 57 56 56 57 56 56 55 55 55 54 54 53 53 53 53 52 52 52 51 50 50 49 49 48 48
55 56 56 57 56 56 55 54 54 54 54 54 55 57 59 60 62 62 62 62 62 62 61 60 59 58 57 56 55 54 54 54 54 54 54 54 53 52 52 52 51 51
58 59 59 59 59 58 57 57 56 56 56 55 56 56 57 58 59 61 62 63 63 63 62 61 60 59 58 56 54 53 53 54 54 55 55 55 54 54 54 53 53 52
61 61 62 61 61 60 59 58 58 57 57 57 56 56 56 56 56 57 58 59 60 60 59 59 58 57 56 55 54 53 53 53 54 54 55 55 55 54 53 53 52 51
63 63 63 62 62 62 61 60 59 58 58 58 57 56 55 55 54 54 55 56 56 55 55 54 54 53 54 54 54 54 54 54 54 53 53 53 52 52 52 51 50 49
63 63 63 63 63 63 63 62 61 60 59 58 57 56 55 54 54 54 54 53 53 53 53 52 52 52 53 54 54 54 53 53 52 52 51 50 50 50 50 49 47 45
64 64 64 64 64 64 64 63 62 61 60 58 57 56 55 54 53 53 52 52 52 52 52 52 52 53 53 54 54 54 54 53 53 52 51 50 49 49 48 47 45 44
66 66 66 65 65 65 64 64 63 62 60 59 57 56 56 56 55 54 54 53 53 52 51 52 53 54 54 54 55 55 55 55 55 54 52 51 50 49 48 48 47 47
69 69 68 68 67 66 65 64 63 62 60 59 57 57 57 57 57 56 56 56 56 55 53 53 54 54 54 55 55 55 55 55 56 55 54 53 52 51 50 50 50 49
71 71 71 70 69 67 66 65 64 62 61 59 58 57 58 59 60 59 57 57 57 57 56 56 55 54 55 55 54 54 54 55 56 57 57 56 56 54 52 51 51 52
73 73 72 71 70 69 68 66 65 63 61 59 57 56 57 60 62 62 59 59 58 57 56 57 57 56 57 58 56 54 53 55 57 58 58 58 58 57 55 54 53 54
74 74 74 73 72 71 70 68 67 65 63 60 58 57 58 61 64 63 61 60 59 57 55 55 55 56 58 60 59 57 56 56 58 59 60 59 58 58 58 57 57 57
76 76 76 75 74 73 71 70 69 68 65 63 61 61 61 63 65 65 64 63 62 61 60 59 58 58 60 62 63 63 62 61 60 60 61 61 60 60 60 60 61 62
77 77 77 76 75 73 72 71 70 69 68 66 65 65 65 66 67 67 66 65 64 65 65 65 65 65 66 67 67 68 67 66 64 63 63 63 63 63 63 64 65 66
75 76 76 75 73 72 71 71 71 70 69 68 68 68 68 69 69 69 68 67 67 67 68 69 70 70 70 71 71 71 70 69 68 67 66 66 66 67 67 68 68 69
71 72 72 72 71 69 69 69 69 69 69 68 68 68 69 69 70 70 70 70 71 71 71 71 72 73 73 73 73 73 73 72 71 70 69 68 69 70 70 70 71 71
68 68 69 69 68 66 65 65 65 65 65 65 65 66 66 67 67 68 69 70 71 72 73 73 74 74 74 74 74 74 74 74 73 72 71 71 71 72 72 72 72 71
67 67 68 68 67 65 63 61 61 62 61 61 61 62 62 62 63 64 65 67 69 70 72 73 74 75 75 75 75 75 76 75 75 74 73 73 73 73 73 72 72 70
Wind_Direction
272 271 271 272 272 272 273 273 272 272 272 270 268 266 264 262 262 262 263 264 265 267 269 270 271 271 269 268 267 266 265 265 265 264 264 265 265 267 272 277 280 280
272 270 268 268 268 269 270 272 274 274 274 272 270 267 264 263 263 263 264 265 267 269 272 274 274 273 271 270 269 268 266 265 264 264 264 264 266 269 274 277 279 280
272 271 269 268 269 271 272 273 274 275 276 276 275 273 271 269 268 268 268 269 270 271 272 273 274 273 273 273 273 271 268 266 264 264 264 266 268 270 273 275 277 277
273 273 273 273 274 275 276 277 277 278 279 280 279 280 279 278 276 275 274 273 273 272 272 271 272 272 272 273 273 272 269 267 265 265 265 267 268 270 271 273 273 274
273 273 273 273 274 274 274 275 276 277 277 278 279 281 282 282 281 281 280 279 278 277 275 275 275 275 275 274 274 272 269 267 267 266 267 267 268 269 270 271 270 271
269 270 271 271 271 271 270 271 272 273 274 275 276 277 278 279 279 280 280 280 280 279 278 277 277 277 277 276 275 273 270 267 266 267 267 268 268 269 269 269 270 270
265 266 268 269 270 270 270 270 271 272 273 274 274 275 275 275 275 276 277 278 278 278 277 277 276 276 276 275 274 273 272 270 269 269 270 270 270 269 269 269 270 270
265 266 267 268 269 269 270 270 270 271 271 271 270 270 270 270 271 272 273 274 274 274 274 274 275 275 275 274 273 273 273 272 271 270 271 272 272 271 271 271 271 271
266 268 269 270 271 271 271 271 271 271 270 269 268 267 266 265 266 267 268 269 271 272 272 273 274 274 274 274 273 273 274 273 271 271 271 272 272 272 272 273 273 273
266 268 269 271 272 273 273 273 273 273 272 272 270 269 267 266 266 266 267 268 270 271 273 273 274 275 275 275 275 275 274 273 273 272 272 272 272 272 273 274 274 274
266 268 269 271 272 273 273 274 274 275 275 274 274 272 271 269 268 268 268 269 270 271 273 273 274 275 275 275 274 273 272 271 271 271 271 272 272 273 273 274 275 275
267 269 270 272 273 273 274 274 275 275 275 275 274 273 273 271 270 269 269 269 270 271 272 273 274 274 274 273 272 270 269 268 268 269 269 271 272 273 273 274 275 276
269 270 271 273 273 274 274 274 275 274 274 273 273 272 271 271 270 269 269 269 269 270 271 272 272 272 271 270 270 269 269 269 269 270 271 272 273 274 275 276 276 276
269 270 271 272 273 274 275 275 275 274 273 273 272 270 269 269 269 269 269 269 269 270 270 270 270 269 269 269 269 270 270 270 271 271 272 273 274 275 276 276 275 274
268 269 270 271 272 272 273 274 273 273 273 272 271 270 268 267 267 268 269 269 269 269 269 269 268 268 269 269 270 270 270 271 271 271 272 273 274 275 275 274 273 272
267 267 268 269 269 270 271 271 271 271 271 270 269 268 268 267 267 267 267 268 268 268 268 268 268 270 271 271 272 272 273 273 274 274 275 275 274 274 273 273 273 273
267 267 267 267 267 268 268 268 268 268 268 267 267 267 267 267 267 267 267 267 268 267 266 265 268 271 273 273 273 274 276 277 277 277 277 276 276 275 274 275 276 276
268 268 268 267 267 267 266 266 265 265 265 265 265 265 266 266 265 265 266 267 268 268 266 265 265 269 271 272 272 274 275 276 277 277 278 278 278 277 277 276 277 278
268 268 267 267 267 266 266 265 264 263 263 263 263 263 263 264 263 263 264 265 266 267 267 267 266 267 268 269 269 270 270 271 273 275 276 278 279 279 279 279 279 280
266 266 266 266 266 266 265 265 264 263 262 261 260 260 259 261 263 263 263 263 263 263 263 265 266 266 266 266 267 268 268 268 269 271 273 274 275 276 277 278 279 280
265 265 265 265 265 265 265 265 264 263 261 259 259 258 257 259 262 264 263 263 262 261 259 259 260 261 262 264 266 267 268 267 268 269 270 272 273 274 274 276 277 278
265 266 266 266 266 266 266 265 264 263 262 260 258 257 257 257 259 261 262 262 261 261 259 259 259 259 261 263 265 267 268 268 269 270 270 271 271 272 273 275 276 277
265 265 265 265 265 265 264 264 263 263 262 261 259 259 258 258 258 258 259 260 260 260 259 259 260 260 261 262 264 265 267 267 268 269 270 270 270 271 273 274 275 276
264 264 264 264 263 262 261 261 261 261 261 260 260 260 259 259 258 258 258 258 259 259 259 259 260 261 262 262 263 265 266 267 267 268 269 269 270 271 272 274 275 276
264 264 263 263 262 261 260 260 260 260 260 259 259 259 259 259 259 259 258 258 258 259 259 259 260 261 262 263 264 265 266 267 268 268 269 270 271 272 273 274 275 276
265 265 265 265 264 263 262 261 260 260 260 260 259 259 259 258 258 258 258 258 259 259 259 259 260 261 262 263 263 264 265 267 268 269 270 271 272 273 274 275 275 275
Height
10580 10581 10581 10580 10580 10580 10581 10581 10582 10583 10585 10586 10588 10589 10590 10591 10593 10594 10595 10596 10596 10597 10597 10597 10597 10597 10597 10598 10598 10599 10600 10600 10600 10600 10601 10601 10601 10601 10601 10601 10601 10601
10576 10577 10577 10576 10576 10576 10576 10576 10577 10578 10579 10580 10582 10584 10586 10587 10588 10589 10590 10591 10591 10592 10592 10592 10592 10592 10592 10593 10593 10594 10594 10595 10595 10595 10595 10595 10595 10595 10595 10595 10595 10596
10572 10573 10573 10573 10572 10571 10572 10572 10572 10572 10572 10573 10574 10577 10580 10582 10583 10584 10585 10585 10586 10586 10587 10587 10587 10587 10588 10588 10588 10588 10589 10589 10589 10589 10590 10590 10590 10590 10590 10590 10590 10591
10568 10568 10569 10568 10568 10567 10567 10567 10567 10567 10567 10567 10567 10569 10572 10574 10576 10577 10579 10580 10580 10581 10581 10582 10583 10583 10583 10584 10584 10584 10584 10584 10584 10584 10584 10584 10584 10584 10585 10585 10585 10586
10563 10564 10564 10564 10563 10563 10563 10562 10562 10563 10562 10561 10562 10564 10565 10566 10567 10569 10571 10572 10573 10574 10575 10576 10576 10577 10578 10578 10578 10578 10578 10578 10578 10578 10579 10579 10579 10579 10579 10580 10580 10580
10558 10558 10558 10558 10558 10558 10559 10559 10558 10558 10557 10557 10558 10559 10559 10559 10560 10561 10562 10564 10565 10566 10567 10569 10570 10570 10571 10571 10572 10572 10572 10572 10572 10572 10573 10573 10573 10573 10573 10574 10574 10574
10553 10553 10553 10553 10552 10553 10554 10554 10554 10553 10552 10552 10553 10553 10554 10553 10553 10554 10555 10556 10557 10558 10559 10561 10562 10563 10563 10564 10564 10564 10565 10565 10565 10566 10566 10566 10567 10567 10567 10567 10567 10568
10548 10547 10547 10547 10546 10547 10548 10549 10549 10548 10548 10548 10548 10548 10548 10548 10548 10548 10549 10549 10550 10551 10552 10552 10553 10554 10555 10556 10557 10557 10558 10558 10558 10559 10559 10559 10560 10560 10560 10561 10561 10561
10542 10541 10541 10540 10540 10540 10541 10542 10542 10542 10542 10542 10542 10542 10542 10542 10542 10542 10542 10542 10542 10543 10543 10544 10545 10545 10546 10547 10549 10549 10550 10550 10551 10551 10552 10552 10553 10553 10553 10554 10554 10554
10535 10534 10534 10533 10533 10534 10534 10535 10535 10535 10535 10535 10535 10535 10535 10535 10535 10536 10535 10535 10534 10535 10535 10535 10536 10537 10538 10539 10540 10541 10541 10542 10542 10543 10543 10544 10545 10546 10546 10546 10546 10547
10528 10527 10526 10526 10526 10527 10527 10527 10527 10527 10527 10527 10527 10527 10527 10528 10528 10528 10528 10528 10527 10527 10527 10528 10528 10529 10530 10531 10532 10533 10533 10533 10534 10534 10535 10535 10537 10538 10538 10538 10539 10539
10520 10520 10519 10518 10518 10519 10519 10520 10520 10519 10519 10519 10519 10519 10519 10520 10521 10521 10520 10520 10520 10520 10520 10521 10521 10522 10522 10523 10523 10524 10524 10524 10525 10526 10527 10528 10529 10530 10531 10531 10532 10532
10513 10512 10511 10511 10511 10511 10511 10512 10513 10512 10512 10512 10512 10512 10512 10512 10512 10513 10512 10512 10513 10513 10514 10514 10514 10515 10514 10514 10515 10515 10516 10517 10518 10519 10520 10522 10523 10523 10524 10525 10525 10525
10505 10505 10505 10504 10503 10503 10503 10504 10504 10505 10505 10505 10505 10505 10505 10504 10504 10504 10504 10505 10505 10506 10506 10506 10507 10507 10506 10506 10507 10508 10509 10510 10511 10512 10514 10515 10516 10517 10517 10517 10518 10518
10498 10498 10498 10497 10497 10496 10496 10496 10496 10497 10498 10498 10498 10498 10498 10498 10497 10497 10497 10497 10497 10497 10498 10498 10498 10498 10499 10499 10500 10501 10502 10503 10503 10505 10507 10508 10509 10510 10510 10510 10511 10511
10491 10491 10491 10491 10490 10490 10489 10489 10489 10490 10491 10491 10491 10491 10490 10490 10491 10490 10490 10489 10489 10490 10491 10490 10490 10490 10491 10492 10492 10492 10494 10494 10495 10497 10499 10500 10502 10502 10502 10503 10503 10504
10483 10483 10483 10483 10483 10483 10482 10483 10483 10483 10483 10484 10485 10485 10484 10483 10483 10482 10482 10482 10481 10482 10484 10484 10484 10484 10484 10484 10483 10484 10485 10485 10486 10488 10490 10491 10492 10494 10494 10495 10495 10495
10473 10472 10472 10473 10473 10474 10474 10475 10476 10476 10477 10478 10479 10479 10478 10475 10473 10473 10475 10475 10474 10474 10476 10477 10478 10478 10476 10475 10476 10477 10477 10477 10477 10478 10480 10481 10483 10484 10486 10486 10486 10486
10462 10461 10461 10462 10463 10465 10465 10466 10467 10468 10470 10472 10473 10474 10472 10466 10463 10466 10469 10468 10467 10468 10467 10468 10470 10472 10469 10468 10469 10470 10470 10470 10470 10471 10472 10473 10473 10474 10475 10477 10477 10478
10452 10451 10451 10452 10453 10455 10455 10457 10458 10460 10462 10465 10466 10467 10465 10458 10454 10457 10461 10461 10461 10461 10460 10460 10462 10463 10461 10460 10461 10462 10462 10463 10463 10464 10465 10466 10466 10467 10467 10468 10468 10469
10441 10441 10441 10442 10444 10445 10446 10447 10448 10449 10452 10456 10457 10458 10456 10452 10448 10449 10451 10453 10453 10453 10453 10453 10454 10455 10454 10453 10453 10453 10454 10455 10456 10456 10457 10458 10459 10460 10460 10460 10460 10461
10431 10431 10431 10432 10434 10435 10436 10437 10438 10439 10441 10445 10447 10447 10447 10445 10442 10441 10442 10443 10444 10444 10444 10445 10445 10446 10446 10445 10445 10445 10446 10447 10448 10449 10450 10450 10451 10451 10452 10452 10452 10452
10421 10421 10421 10422 10423 10425 10426 10426 10427 10428 10430 10432 10434 10435 10436 10436 10434 10433 10433 10434 10434 10434 10435 10435 10435 10436 10437 10437 10437 10437 10438 10439 10440 10441 10442 10443 10443 10443 10444 10444 10444 10444
10410 10410 10410 10410 10412 10413 10415 10416 10416 10417 10419 10421 10423 10424 10424 10424 10424 10424 10424 10424 10424 10424 10424 10425 10425 10426 10426 10427 10428 10428 10429 10430 10431 10432 10433 10434 10435 10435 10435 10435 10435 10435
10399 10399 10399 10399 10400 10402 10405 10406 10407 10408 10409 10411 10412 10413 10413 10414 10414 10414 10415 10414 10414 10414 10414 10415 10415 10415 10416 10417 10418 10419 10419 10420 10421 10423 10424 10425 10425 10426 10426 10426 10425 10425
10389 10388 10387 10387 10389 10391 10394 10397 10398 10399 10399 10401 10402 10403 10403 10404 10405 10405 10405 10405 10405 10405 10405 10405 10406 10406 10406 10407 10408 10409 10410 10411 10412 10414 10415 10416 10416 10416 10416 10415 10415 10415